Zurück zum Katalog

YAOGAN 25C DEB

AktivLEO
NORAD 69731·DEBRIS·🇷🇺 Russia

Gestartet Dec 10, 2014 von Jiuquan Satellite Launch Center

Loading…

Nächste Überflüge (nächste 24 Stunden)

TLE

AktuellSource: Space-Track

Epoche: Sep 14, 2026, 11:27 UTC

1 69731U 14080L   26257.47729298  .00005082  00000-0  43919-2 0  9992
2 69731  63.3640  59.9820 0321783  22.8040 338.6926 13.66132208 43010

Verfolge YAOGAN 25C DEB in Echtzeit mit AllMySat

Download on the App Store